GW3140 Weather Reports


Display with metric or nautical units.
time (UTC)temp
F
wind
direction
speed
MPH
gust
MPH
rain 1hr
in
rain 24hr
in
rain mn
in
humidity
%
barometer
mb
20260508025519 40 0 0.0 0.0 0.00 0.00 0.00 78 1012.4
20260508025011 40 0 0.0 0.0 0.00 0.00 0.00 77 1012.3
20260508024530 40 0 0.0 0.0 0.00 0.00 0.00 78 1012.5
20260508024013 40 0 0.0 0.0 0.00 0.00 0.00 76 1012.5
20260508023515 40 0 0.0 0.0 0.00 0.00 0.00 76 1012.4
20260508023037 40 0 0.0 0.0 0.00 0.00 0.00 77 1012.4
20260508022513 40 0 0.0 0.0 0.00 0.00 0.00 76 1012.4
20260508022011 40 0 0.0 0.0 0.00 0.00 0.00 73 1012.3
20260508021551 41 0 0.0 0.0 0.00 0.00 0.00 73 1012.3
20260508021011 41 0 0.0 0.0 0.00 0.00 0.00 73 1012.3
20260508020510 41 0 0.0 0.0 0.00 0.00 0.00 73 1012.3
20260508020029 41 0 0.0 0.0 0.00 0.00 0.00 74 1012.4
20260508015512 41 0 0.0 0.0 0.00 0.00 0.00 72 1012.3
20260508015011 41 0 0.0 0.0 0.00 0.00 0.00 72 1012.2
20260508014530 41 0 0.0 0.0 0.00 0.00 0.00 71 1012.4
20260508014012 41 0 0.0 0.0 0.00 0.00 0.00 67 1012.2
20260508013510 42 0 0.0 0.0 0.00 0.00 0.00 68 1012.2
20260508013031 42 0 0.0 0.0 0.00 0.00 0.00 68 1012.2
20260508012511 42 0 0.0 0.0 0.00 0.00 0.00 66 1012.0
20260508012011 43 0 0.0 0.0 0.00 0.00 0.00 67 1012.0
20260508011529 43 0 0.0 0.0 0.00 0.00 0.00 66 1011.9
20260508011011 43 0 0.0 0.0 0.00 0.00 0.00 64 1011.9
20260508010512 43 0 0.0 0.0 0.00 0.00 0.00 64 1012.0
20260508010031 44 0 0.0 0.0 0.00 0.00 0.00 63 1011.9
20260508005510 44 0 0.0 1.0 0.00 0.00 0.00 63 1011.9
20260508005012 44 0 0.0 1.0 0.00 0.00 0.00 62 1011.9
20260508004532 45 0 0.0 1.0 0.00 0.00 0.00 62 1011.8
20260508004013 45 0 0.0 0.0 0.00 0.00 0.00 62 1011.8
20260508003514 45 0 0.0 1.0 0.00 0.00 0.00 61 1011.7
20260508003028 45 0 0.0 1.0 0.00 0.00 0.00 62 1011.8
20260508002510 45 0 0.0 3.0 0.00 0.00 0.00 59 1011.9
20260508002012 46 337 1.0 3.0 0.00 0.00 0.00 59 1011.8
20260508001544 46 327 0.0 3.0 0.00 0.00 0.00 59 1011.8
20260508001012 46 332 0.0 4.0 0.00 0.00 0.00 58 1011.8
20260508000511 46 333 1.0 4.0 0.00 0.00 0.00 58 1011.7
20260508000028 46 350 1.0 4.0 0.00 0.00 0.00 58 1011.6
20260507235512 47 294 1.0 4.0 0.00 0.00 0.00 57 1011.6
20260507235013 47 278 1.0 2.0 0.00 0.00 0.00 59 1011.5
20260507234530 47 324 0.0 3.0 0.00 0.00 0.00 56 1011.5
20260507234009 47 337 1.0 4.0 0.00 0.00 0.00 57 1011.4
20260507233513 47 341 1.0 5.0 0.00 0.00 0.00 57 1011.6
20260507233033 47 0 0.0 5.0 0.00 0.00 0.00 58 1011.6
20260507232508 48 331 2.0 5.0 0.00 0.00 0.00 56 1011.6
20260507232011 48 336 1.0 3.0 0.00 0.00 0.00 57 1011.6
20260507231528 48 318 1.0 4.0 0.00 0.00 0.00 56 1011.6
20260507231016 48 256 1.0 4.0 0.00 0.00 0.00 55 1011.6
20260507230514 49 274 2.0 4.0 0.00 0.00 0.00 54 1011.6
20260507230035 49 303 1.0 4.0 0.00 0.00 0.00 58 1011.5
20260507225514 49 306 0.0 6.0 0.00 0.00 0.00 56 1011.6
20260507225017 49 299 1.0 6.0 0.00 0.00 0.00 54 1011.5
20260507224535 49 348 2.0 4.0 0.00 0.00 0.00 57 1011.6
20260507224014 49 326 1.0 6.0 0.00 0.00 0.00 54 1011.6
20260507223514 50 302 2.0 7.0 0.00 0.00 0.00 54 1011.6
20260507223031 50 290 3.0 7.0 0.00 0.00 0.00 54 1011.6
20260507222512 50 278 2.0 8.0 0.00 0.00 0.00 56 1011.5
20260507222015 49 317 1.0 8.0 0.00 0.00 0.00 55 1011.5
20260507221531 50 329 2.0 8.0 0.00 0.00 0.00 53 1011.6
20260507221013 50 280 1.0 6.0 0.00 0.00 0.00 55 1011.6
20260507220514 50 328 2.0 8.0 0.00 0.00 0.00 54 1011.6
20260507220031 50 335 1.0 8.0 0.00 0.00 0.00 55 1011.6
20260507215515 50 347 3.0 7.0 0.00 0.00 0.00 53 1011.4
20260507215017 51 341 1.0 7.0 0.00 0.00 0.00 57 1011.5
20260507214530 51 320 3.0 6.0 0.00 0.00 0.00 53 1011.5
20260507214014 51 341 2.0 9.0 0.00 0.00 0.00 53 1011.4
20260507213512 51 272 1.0 9.0 0.00 0.00 0.00 52 1011.4
20260507213036 51 272 1.0 7.0 0.00 0.00 0.00 58 1011.5
20260507212516 51 332 0.0 6.0 0.00 0.00 0.00 56 1011.4
20260507212012 50 0 0.0 6.0 0.00 0.00 0.00 56 1011.6
20260507211543 50 0 0.0 3.0 0.00 0.00 0.00 60 1011.5
20260507211015 49 326 0.0 4.0 0.00 0.00 0.00 59 1011.4
20260507210512 48 344 0.0 4.0 0.00 0.00 0.00 62 1011.5
20260507210035 48 289 1.0 3.0 0.00 0.00 0.00 59 1011.5
20260507205513 48 325 1.0 3.0 0.00 0.00 0.00 58 1011.5
20260507205014 48 0 0.0 4.0 0.00 0.00 0.00 60 1011.4
20260507204533 48 277 1.0 4.0 0.00 0.00 0.00 57 1011.4
20260507204013 48 0 0.0 3.0 0.00 0.00 0.00 58 1011.4
20260507203513 48 277 1.0 3.0 0.00 0.00 0.00 57 1011.4
20260507203032 48 306 0.0 3.0 0.00 0.00 0.00 57 1011.4
20260507202512 48 0 0.0 5.0 0.00 0.00 0.00 58 1011.4
20260507202013 48 339 2.0 5.0 0.00 0.00 0.00 56 1011.3
20260507201541 48 330 1.0 4.0 0.00 0.00 0.00 57 1011.3
20260507201014 48 346 1.0 4.0 0.00 0.00 0.00 57 1011.3
20260507200512 49 274 1.0 6.0 0.00 0.00 0.00 57 1011.4
20260507200037 49 329 1.0 6.0 0.00 0.00 0.00 59 1011.3
20260507195514 49 297 2.0 6.0 0.00 0.00 0.00 56 1011.4
20260507195011 49 293 2.0 4.0 0.00 0.00 0.00 56 1011.3
20260507194529 49 278 1.0 4.0 0.00 0.00 0.00 56 1011.4
20260507194010 50 311 1.0 8.0 0.00 0.00 0.00 54 1011.3
20260507193510 50 284 2.0 8.0 0.00 0.00 0.00 55 1011.4
20260507193028 51 318 3.0 8.0 0.00 0.00 0.00 54 1011.4
20260507192511 51 303 2.0 6.0 0.00 0.00 0.00 54 1011.2
20260507192010 51 314 1.0 7.0 0.00 0.00 0.00 54 1011.3
20260507191531 51 305 2.0 7.0 0.00 0.00 0.00 53 1011.3
20260507191010 51 282 3.0 7.0 0.00 0.00 0.00 53 1011.2
20260507190512 51 318 2.0 8.0 0.00 0.00 0.00 52 1011.2
20260507190033 51 329 2.0 8.0 0.00 0.00 0.00 53 1011.3
20260507185512 51 272 2.0 8.0 0.00 0.00 0.00 52 1011.4
20260507185009 52 308 3.0 9.0 0.00 0.00 0.00 51 1011.4
20260507184528 52 297 3.0 9.0 0.00 0.00 0.00 51 1011.2
20260507184010 52 264 2.0 6.0 0.00 0.00 0.00 50 1011.2
20260507183511 53 265 2.0 8.0 0.00 0.00 0.00 47 1011.1
20260507183033 53 293 3.0 8.0 0.00 0.00 0.00 48 1011.2
20260507182512 53 272 2.0 6.0 0.00 0.00 0.00 48 1011.2
20260507182010 54 262 2.0 9.0 0.00 0.00 0.00 45 1011.2
20260507181528 54 223 2.0 9.0 0.00 0.00 0.00 45 1011.1
20260507181012 54 280 4.0 9.0 0.00 0.00 0.00 44 1011.1
20260507180510 53 272 1.0 8.0 0.00 0.00 0.00 49 1011.1
20260507180044 53 266 3.0 8.0 0.00 0.00 0.00 46 1011.2
20260507175510 53 331 2.0 8.0 0.00 0.00 0.00 49 1011.2
20260507175009 53 263 3.0 9.0 0.00 0.00 0.00 44 1011.2
20260507174528 53 284 4.0 9.0 0.00 0.00 0.00 45 1011.4
20260507174010 53 264 2.0 8.0 0.00 0.00 0.00 47 1011.4
20260507173514 53 298 3.0 8.0 0.00 0.00 0.00 47 1011.4
20260507173030 54 277 2.0 8.0 0.00 0.00 0.00 46 1011.5
20260507172511 54 295 3.0 9.0 0.00 0.00 0.00 48 1011.5
20260507172010 53 271 4.0 10.0 0.00 0.00 0.00 46 1011.5
20260507171530 53 264 3.0 10.0 0.00 0.00 0.00 51 1011.6
20260507171014 53 268 3.0 9.0 0.00 0.00 0.00 50 1011.8
20260507170513 53 268 3.0 9.0 0.00 0.00 0.00 48 1011.7
20260507170044 52 338 3.0 9.0 0.00 0.00 0.00 52 1011.8
20260507165514 52 329 2.0 9.0 0.00 0.00 0.00 55 1012.0
20260507165012 52 359 3.0 8.0 0.00 0.00 0.00 50 1011.9
20260507164531 52 255 2.0 11.0 0.00 0.00 0.00 51 1011.9
20260507164012 52 332 3.0 11.0 0.00 0.00 0.00 52 1012.0
20260507163514 51 253 2.0 5.0 0.00 0.00 0.00 56 1012.0
20260507163031 51 296 1.0 5.0 0.00 0.00 0.00 53 1012.1
20260507162512 51 314 1.0 7.0 0.00 0.00 0.00 56 1012.2
20260507162014 51 283 2.0 7.0 0.00 0.00 0.00 52 1012.2
20260507161531 51 147 1.0 6.0 0.00 0.00 0.00 54 1012.1
20260507161015 51 299 2.0 7.0 0.00 0.00 0.00 54 1012.1
20260507160512 52 261 2.0 7.0 0.00 0.00 0.00 56 1012.2
20260507160030 51 302 2.0 7.0 0.00 0.00 0.00 56 1012.3
20260507155513 51 0 1.0 5.0 0.00 0.00 0.00 54 1012.2
20260507155012 51 311 1.0 6.0 0.00 0.00 0.00 52 1012.3
20260507154530 52 262 2.0 9.0 0.00 0.00 0.00 54 1012.4
20260507154017 52 341 2.0 9.0 0.00 0.00 0.00 51 1012.3
20260507153513 52 254 2.0 6.0 0.00 0.00 0.00 52 1012.3
20260507153031 52 0 2.0 7.0 0.00 0.00 0.00 54 1012.3
20260507152514 52 298 2.0 7.0 0.00 0.00 0.00 52 1012.3
20260507152014 52 260 2.0 6.0 0.00 0.00 0.00 51 1012.3
20260507151532 52 308 2.0 7.0 0.00 0.00 0.00 50 1012.3
20260507151015 52 316 1.0 7.0 0.00 0.00 0.00 50 1012.2
20260507150516 51 287 2.0 6.0 0.00 0.00 0.00 52 1012.4
20260507150029 51 285 1.0 7.0 0.00 0.00 0.00 54 1012.4
20260507145512 51 270 1.0 8.0 0.00 0.00 0.00 54 1012.4
20260507145016 51 285 3.0 8.0 0.00 0.00 0.00 53 1012.4
20260507144532 51 277 2.0 5.0 0.00 0.00 0.00 56 1012.4
20260507144014 50 288 1.0 5.0 0.00 0.00 0.00 58 1012.5
20260507143513 50 350 2.0 6.0 0.00 0.00 0.00 58 1012.4
20260507143030 50 172 1.0 6.0 0.00 0.00 0.00 55 1012.4
20260507142516 50 258 2.0 6.0 0.00 0.00 0.00 56 1012.5
20260507142014 50 339 1.0 4.0 0.00 0.00 0.00 58 1012.5
20260507141529 50 318 1.0 4.0 0.00 0.00 0.00 59 1012.5
20260507141014 49 0 0.0 0.0 0.00 0.00 0.00 65 1012.5
20260507140512 49 0 0.0 4.0 0.00 0.00 0.00 60 1012.7
20260507140035 49 0 0.0 4.0 0.00 0.00 0.00 64 1012.8
20260507135510 48 0 0.0 4.0 0.00 0.00 0.00 63 1012.8
20260507135010 48 0 0.0 5.0 0.00 0.00 0.00 64 1012.8
20260507134530 48 0 1.0 6.0 0.00 0.00 0.00 65 1012.7
20260507134012 48 0 1.0 6.0 0.00 0.00 0.00 64 1012.7
20260507133512 47 267 1.0 5.0 0.00 0.00 0.00 63 1012.7
20260507133030 47 252 1.0 4.0 0.00 0.00 0.00 65 1012.8
20260507132511 46 266 2.0 4.0 0.00 0.00 0.00 68 1012.9
20260507132013 46 233 1.0 3.0 0.00 0.00 0.00 68 1012.8
20260507131532 45 0 0.0 3.0 0.00 0.00 0.00 70 1012.9
20260507131011 44 0 0.0 1.0 0.00 0.00 0.00 71 1012.9
20260507130512 44 0 0.0 1.0 0.00 0.00 0.00 71 1012.9
20260507130035 43 0 0.0 0.0 0.00 0.00 0.00 72 1012.9
20260507125511 43 0 0.0 0.0 0.00 0.00 0.00 71 1012.8
20260507125014 42 0 0.0 0.0 0.00 0.00 0.00 72 1012.8
20260507124531 42 0 0.0 0.0 0.00 0.00 0.00 73 1012.8
20260507124011 42 0 0.0 0.0 0.00 0.00 0.00 72 1012.8
20260507123512 41 0 0.0 0.0 0.00 0.00 0.00 73 1012.8
20260507123032 41 0 0.0 0.0 0.00 0.00 0.00 73 1012.7
20260507122513 41 0 0.0 0.0 0.00 0.00 0.00 74 1012.8
20260507122016 40 0 0.0 0.0 0.00 0.00 0.00 74 1012.8
20260507121528 40 0 0.0 0.0 0.00 0.00 0.00 75 1012.7
20260507121012 40 0 0.0 0.0 0.00 0.00 0.00 75 1012.8
20260507120511 39 0 0.0 0.0 0.00 0.00 0.00 75 1012.8
20260507120030 39 0 0.0 0.0 0.00 0.00 0.00 76 1012.7
20260507115517 39 0 0.0 0.0 0.00 0.00 0.00 79 1012.6
20260507115013 38 0 0.0 0.0 0.00 0.00 0.00 78 1012.5
20260507114529 38 0 0.0 0.0 0.00 0.00 0.00 78 1012.5
20260507114011 38 0 0.0 0.0 0.00 0.00 0.00 77 1012.5
20260507113509 37 0 0.0 0.0 0.00 0.00 0.00 77 1012.4
20260507113029 37 0 0.0 0.0 0.00 0.00 0.00 78 1012.4
20260507112512 37 0 0.0 0.0 0.00 0.00 0.00 79 1012.5
20260507112012 37 0 0.0 0.0 0.00 0.00 0.00 79 1012.3
20260507111529 36 0 0.0 0.0 0.00 0.00 0.00 79 1012.3
20260507111012 36 0 0.0 0.0 0.00 0.00 0.00 79 1012.3
20260507110512 36 0 0.0 0.0 0.00 0.00 0.00 80 1012.2
20260507110028 36 0 0.0 0.0 0.00 0.00 0.00 80 1012.1
20260507105511 36 0 0.0 0.0 0.00 0.00 0.00 80 1012.1
20260507105010 35 0 0.0 0.0 0.00 0.00 0.00 79 1012.2
20260507104530 35 0 0.0 0.0 0.00 0.00 0.00 78 1012.1
20260507104014 35 0 0.0 0.0 0.00 0.00 0.00 78 1012.2
20260507103509 35 0 0.0 0.0 0.00 0.00 0.00 78 1012.3
20260507103031 35 0 0.0 0.0 0.00 0.00 0.00 79 1012.3
20260507102510 35 0 0.0 0.0 0.00 0.00 0.00 79 1012.2
20260507102012 35 0 0.0 0.0 0.00 0.00 0.00 79 1012.1
20260507101530 35 0 0.0 0.0 0.00 0.00 0.00 79 1012.2
20260507101011 35 0 0.0 0.0 0.00 0.00 0.00 78 1012.1
20260507100511 35 0 0.0 0.0 0.00 0.00 0.00 78 1012.1
20260507100031 35 0 0.0 0.0 0.00 0.00 0.00 78 1012.1
20260507095512 35 0 0.0 0.0 0.00 0.00 0.00 78 1012.1
20260507095013 35 0 0.0 0.0 0.00 0.00 0.00 77 1012.1
20260507094531 35 0 0.0 0.0 0.00 0.00 0.00 77 1012.1
20260507094010 35 0 0.0 0.0 0.00 0.00 0.00 76 1012.1
20260507093515 35 0 0.0 0.0 0.00 0.00 0.00 76 1012.2
20260507093029 35 0 0.0 0.0 0.00 0.00 0.00 76 1012.2
20260507092510 36 0 0.0 0.0 0.00 0.00 0.00 76 1012.3
20260507092011 36 0 0.0 0.0 0.00 0.00 0.00 75 1012.2
20260507091538 36 0 0.0 0.0 0.00 0.00 0.00 74 1012.2
20260507091016 36 0 0.0 0.0 0.00 0.00 0.00 74 1012.1
20260507090512 36 0 0.0 0.0 0.00 0.00 0.00 74 1012.2
20260507090035 36 0 0.0 0.0 0.00 0.00 0.00 73 1012.3
20260507085512 37 0 0.0 0.0 0.00 0.00 0.00 73 1012.3
20260507085014 37 0 0.0 0.0 0.00 0.00 0.00 73 1012.3
20260507084540 37 0 0.0 0.0 0.00 0.00 0.00 73 1012.4
20260507084009 37 0 0.0 0.0 0.00 0.00 0.00 73 1012.3
20260507083514 37 0 0.0 0.0 0.00 0.00 0.00 72 1012.3
20260507083028 37 0 0.0 0.0 0.00 0.00 0.00 71 1012.3
20260507082509 37 0 0.0 0.0 0.00 0.00 0.00 71 1012.3
20260507082011 38 0 0.0 0.0 0.00 0.00 0.00 70 1012.4
20260507081530 38 0 0.0 0.0 0.00 0.00 0.00 69 1012.4
20260507081015 38 0 0.0 0.0 0.00 0.00 0.00 69 1012.4
20260507080512 38 0 0.0 0.0 0.00 0.00 0.00 69 1012.4
20260507080030 38 0 0.0 1.0 0.00 0.00 0.00 69 1012.5
20260507075512 38 0 0.0 1.0 0.00 0.00 0.00 69 1012.7
20260507075012 38 0 0.0 1.0 0.00 0.00 0.00 69 1012.8
20260507074530 39 0 0.0 1.0 0.00 0.00 0.00 69 1012.8
20260507074028 39 0 0.0 1.0 0.00 0.00 0.00 68 1012.8
20260507073516 39 0 0.0 0.0 0.00 0.00 0.00 69 1012.7
20260507073038 39 0 0.0 0.0 0.00 0.00 0.00 68 1012.6
20260507072512 39 0 0.0 0.0 0.00 0.00 0.00 69 1012.7
20260507072012 39 0 0.0 2.0 0.00 0.00 0.00 69 1012.8
20260507071532 39 0 0.0 2.0 0.00 0.00 0.00 70 1012.7
20260507071011 39 0 0.0 2.0 0.00 0.00 0.00 71 1012.8
20260507070514 39 0 0.0 2.0 0.00 0.00 0.00 72 1012.8
20260507070041 39 0 0.0 1.0 0.00 0.00 0.00 74 1012.8
20260507065512 39 0 0.0 1.0 0.00 0.00 0.00 75 1012.8
20260507065012 39 0 0.0 0.0 0.00 0.00 0.00 77 1012.7
20260507064532 39 0 0.0 0.0 0.00 0.00 0.00 77 1012.8
20260507064014 39 0 0.0 0.0 0.00 0.00 0.00 77 1012.8
20260507063513 39 0 0.0 0.0 0.00 0.00 0.00 78 1012.8
20260507063034 39 0 0.0 0.0 0.00 0.00 0.00 77 1012.8
20260507062512 40 0 0.0 0.0 0.00 0.00 0.00 75 1012.8
20260507062014 40 0 0.0 0.0 0.00 0.00 0.00 75 1012.7
20260507061532 40 0 0.0 0.0 0.00 0.00 0.00 76 1012.6
20260507061012 40 0 0.0 0.0 0.00 0.00 0.00 75 1012.7
20260507060513 41 0 0.0 0.0 0.00 0.00 0.00 74 1012.7
20260507060033 41 0 0.0 0.0 0.00 0.00 0.00 74 1012.7
20260507055512 41 0 0.0 0.0 0.00 0.00 0.00 72 1012.7
20260507055011 41 0 0.0 0.0 0.00 0.00 0.00 72 1012.7
20260507054540 42 0 0.0 0.0 0.00 0.00 0.00 71 1012.7
20260507054017 42 0 0.0 0.0 0.00 0.00 0.00 71 1012.7
20260507053513 42 0 0.0 0.0 0.00 0.00 0.00 72 1012.7
20260507053030 42 0 0.0 0.0 0.00 0.00 0.00 71 1012.7
20260507052513 42 0 0.0 0.0 0.00 0.00 0.00 72 1012.8
20260507052014 42 0 0.0 0.0 0.00 0.00 0.00 70 1012.8
20260507051531 42 0 0.0 0.0 0.00 0.00 0.00 71 1012.9
20260507051012 43 0 0.0 0.0 0.00 0.00 0.00 69 1012.8
20260507050513 43 0 0.0 2.0 0.00 0.00 0.00 68 1012.7
20260507050042 43 0 0.0 2.0 0.00 0.00 0.00 68 1012.6
20260507045512 43 0 0.0 1.0 0.00 0.00 0.00 69 1012.5
20260507045013 43 0 0.0 0.0 0.00 0.00 0.00 68 1012.5
20260507044530 43 0 0.0 0.0 0.00 0.00 0.00 67 1012.6
20260507044012 43 0 0.0 3.0 0.00 0.00 0.00 67 1012.6
20260507043512 43 0 0.0 3.0 0.00 0.00 0.00 67 1012.6
20260507043030 43 0 0.0 0.0 0.00 0.00 0.00 67 1012.6
20260507042512 43 0 0.0 0.0 0.00 0.00 0.00 66 1012.7
20260507042012 43 0 0.0 0.0 0.00 0.00 0.00 67 1012.6
20260507041529 43 0 0.0 1.0 0.00 0.00 0.00 67 1012.7
20260507041012 43 0 0.0 1.0 0.00 0.00 0.00 67 1012.7
20260507040512 43 0 0.0 1.0 0.00 0.00 0.00 67 1012.8
20260507040031 42 0 0.0 0.0 0.00 0.00 0.00 68 1012.8
20260507035510 42 0 0.0 0.0 0.00 0.00 0.00 69 1012.8
20260507035013 42 0 0.0 0.0 0.00 0.00 0.00 68 1012.9
20260507034530 42 0 0.0 0.0 0.00 0.00 0.00 69 1012.9
20260507034011 42 0 0.0 0.0 0.00 0.00 0.00 69 1012.9
20260507033513 42 0 0.0 0.0 0.00 0.00 0.00 69 1013.0
20260507033030 42 0 0.0 0.0 0.00 0.00 0.00 70 1013.0
20260507032513 42 0 0.0 0.0 0.00 0.00 0.00 69 1013.0
20260507032009 42 0 0.0 0.0 0.00 0.00 0.00 69 1013.0
20260507031529 42 0 0.0 0.0 0.00 0.00 0.00 70 1013.1
20260507031011 43 0 0.0 0.0 0.00 0.00 0.00 70 1013.2
20260507030513 43 0 0.0 0.0 0.00 0.00 0.00 71 1013.3
20260507030031 43 0 0.0 0.0 0.00 0.00 0.00 68 1013.3